Regional Weather Roundup
Issued by NWS

Home | Current Version | Previous Version | Graphics & Text | Print | Product List | Glossary On
Versions: 1 2 3 4 5 6 7 8 9 10 11 12 13 14 15 16 17 18 19 20 21 22 23 24 25 26 27 28 29 30 31 32 33 34 35 36 37 38 39 40 41 42 43 44 45 46 47 48 49 50
525
ASUS43 KFSD 241310
RWRSD

WEATHER ROUNDUP FOR SOUTH DAKOTA
NATIONAL WEATHER SERVICE SIOUX FALLS SD
800 AM CDT TUE MAY 24 2016

NOTE: "FAIR" INDICATES FEW OR NO CLOUDS BELOW 12,000 FEET WITH NO
SIGNIFICANT WEATHER AND/OR OBSTRUCTIONS TO VISIBILITY.


SDZ001>005-009-010-012>017-241400-
NORTHWEST AND NORTH CENTRAL SOUTH DAKOTA

CITY           SKY/WX    TMP DP  RH WIND       PRES   REMARKS
BUFFALO          N/A     47  39  74 NW8       29.84R
FAITH            N/A     52  40  63 N7        29.88R
MOBRIDGE       SUNNY     55  48  77 NW7       29.84R
$$

SDZ012>016-024>037-041>051-057-063-072>074-241400-
SOUTHWEST AND SOUTH CENTRAL SOUTH DAKOTA

CITY           SKY/WX    TMP DP  RH WIND       PRES   REMARKS
RAPID CTY ARPT SUNNY     54  39  57 NW7       29.90R
PIERRE         SUNNY     55  47  74 NE13      29.83R
CUSTER         SUNNY     46  32  58 CALM      29.95R
PHILIP         SUNNY     50  45  83 W6        29.88R
PINE RIDGE     SUNNY     43  37  79 CALM      29.91R
WINNER         FAIR      57  47  69 S6        29.87R
$$

SDZ004>011-016>023-039-040-241400-
NORTHEAST SOUTH DAKOTA

CITY           SKY/WX    TMP DP  RH WIND       PRES   REMARKS
ABERDEEN       SUNNY     62  50  64 N7        29.84R
WATERTOWN      SUNNY     64  57  78 NE8       29.85R
BROOKINGS      FOG       61  61 100 S9        29.86R VSB 3/4
SISSETON         N/A     64  49  57 NE7       29.83R
$$

SDZ017-020-022-023-036>040-048>070-241400-
SOUTHEAST SOUTH DAKOTA

CITY           SKY/WX    TMP DP  RH WIND       PRES   REMARKS
SIOUX FALLS    CLOUDY    63  60  90 S7        29.85R
HURON          FOG       58  58 100 S5        29.82R VSB 1/4
CHAMBERLAIN    SUNNY     60  55  83 SW6       29.86R
MITCHELL       SUNNY     60  59  96 S7        29.84R
YANKTON        CLOUDY    61  57  88 SW3       29.85S
$$

ABBREVIATIONS USED IN REMARKS
   TC - TEMPERATURE IN CELSIUS
  WCI - WIND CHILL INDEX
   HX - HEAT INDEX
  VSB - VISIBILITY





USA.gov is the U.S. government's official web portal to all federal, state and local government web resources and services.